Location: Oakhurst
(33.6448°N, 111.9543°W)
Time: 13:24:32
(UTC+00:00)

SPROUT - Pass Details

Date: 29 July 2021
Orbit: 597 x 607 km, 97.9° (Epoch: 21 September)

Event Time Altitude Azimuth Distance (km) Brightness Sun altitude
Exits shadow 07:10:50 10° 25° (NNE) 1,931 ? -37.4°
Drops below altitude 10° 07:10:52 10° 25° (NNE) 1,938 ? -37.4°
Sets 07:13:33 0° 7° (N) 2,844 ? -37.5°
